sat.trackr.live / text

‹ back to catalog

KAZEOSAT 2

NORAD 40010 · 2014-033A

PAYLOAD ACTIVE UNKNOWN

§ Identity

Operator
Country
KAZ
Launch date
2014-06-19
Launch site
DLS
Launch vehicle
Mass (kg)
RCS (m²)
0.40

Purposes: earth_obs

External: N2YO · Heavens-Above · Gunter

§ Orbital elements

Epoch: 2026-09-10T04:03:17.135712Z

Period
96.93 min
Inclination
97.5369°
Eccentricity
0.0009814
Mean motion
14.85555349 rev/d
Perigee alt
605.0 km
Apogee alt
618.7 km
Semi-major
6,990.0 km
B*
1.0716e-4
RAAN
88.2854°
Arg perigee
45.4121°
Mean anomaly
314.7895°
Rev number
66,157

§ Raw data

KAZEOSAT 21 40010U 14033A   26253.16894833  .00000877  00000+0  10716-3 0  99952 40010  97.5369  88.2854 0009814  45.4121 314.7895 14.85555349661571

JSON: /api/v1/satellites/40010 · /tle

For live sub-satellite position, see the globe view (requires WebGL).

§ Visibility from observer

Set your observer location to see the next 7 days of passes ≥ 10°. The values pass through the URL so the page stays shareable.

No JS? Fill the form by hand. The geolocation button needs JavaScript.